Fort Eustis, VA

8:27 PM EDT on May 20, 2018 (GMT -0400)
Felker Army Air Field

Weather History for KFAF - October, 2012

Change the Weather History Date:

Tuesday, October 2, 2012

  Actual Average Record
Temperature  
Mean Temperature 73 °F -  
Max Temperature 82 °F 73 °F 86 °F (2002)
Min Temperature 64 °F 57 °F 48 °F (2003)
Cooling Degree Days 8    
Growing Degree Days 23 (Base 50)    
Moisture  
Dew Point 72 °F    
Average Humidity 92    
Maximum Humidity 100    
Minimum Humidity 79    
Precipitation  
Precipitation 0.25 in - - ()
Sea Level Pressure  
Sea Level Pressure 29.90 in    
Wind  
Wind Speed 4 mph (SSE)    
Max Wind Speed 10 mph    
Max Gust Speed 18 mph    
Visibility 9 miles    
Events Rain    
Averages and records for this station are not official NWS values.
T = Trace of Precipitation, MM = Missing Value Source: NWS Daily Summary

Daily Weather History Graph

Daily Weather History Graph

Search for Another Location

Airport or City:

Astronomy

Oct. 02, 2012 Rise Set
Actual Time 7:03 AM EDT 6:47 PM EDT
Civil Twilight 6:37 AM EDT 7:13 PM EDT
Nautical Twilight 6:06 AM EDT 7:43 PM EDT
Astronomical Twilight 5:36 AM EDT 8:13 PM EDT
Moon 8:03 PM EDT (10/2) 9:23 AM EDT (10/2)
Length of Visible Light 12h 36m
Length of Day
11h 44m
Waning Gibbous, 94% of the Moon is Illuminated
Oct 2
Waning Gibbous
Oct 8
Last Quarter
Oct 15
New
Oct 21
First Quarter
Oct 29
Full

Hourly Weather History & Observations

Time (EDT) Temp. Heat Index Dew Point Humidity Pressure Visibility Wind Dir Wind Speed Gust Speed Precip Events Conditions
12:35 AM 64.4 °F - 62.6 °F 94% 29.92 in 10.0 mi Calm Calm - N/A   Mostly Cloudy
12:55 AM 64.9 °F - 63.5 °F 95% 29.91 in 10.0 mi Calm Calm - N/A   Overcast
1:55 AM 66.4 °F - 63.9 °F 92% 29.91 in 10.0 mi Calm Calm - N/A   Overcast
2:05 AM 66.2 °F - 64.4 °F 94% 29.91 in 10.0 mi Calm Calm - N/A   Mostly Cloudy
2:35 AM 66.2 °F - 64.4 °F 94% 29.90 in 10.0 mi Calm Calm - N/A   Overcast
2:55 AM 66.6 °F - 64.9 °F 95% 29.90 in 10.0 mi Calm Calm - N/A   Overcast
3:12 AM 68.0 °F - 64.4 °F 88% 29.90 in 10.0 mi Calm Calm - N/A   Overcast
3:32 AM 68.0 °F - 66.2 °F 94% 29.89 in 10.0 mi Calm Calm - N/A   Overcast
3:55 AM 67.3 °F - 65.7 °F 95% 29.90 in 10.0 mi Calm Calm - N/A   Overcast
4:02 AM 68.0 °F - 66.2 °F 94% 29.89 in 10.0 mi Calm Calm - N/A   Overcast
4:09 AM 68.0 °F - 66.2 °F 94% 29.90 in 10.0 mi Calm Calm - N/A   Mostly Cloudy
4:24 AM 68.0 °F - 66.2 °F 94% 29.89 in 10.0 mi ESE 3.5 mph - N/A   Overcast
4:40 AM 69.8 °F - 68.0 °F 94% 29.89 in 10.0 mi ESE 3.5 mph - N/A   Overcast
4:55 AM 69.4 °F - 68.2 °F 96% 29.89 in 10.0 mi ESE 4.6 mph - N/A   Mostly Cloudy
5:03 AM 69.8 °F - 68.0 °F 94% 29.89 in 10.0 mi ESE 4.6 mph - N/A   Scattered Clouds
5:34 AM 69.8 °F - 69.8 °F 100% 29.88 in 10.0 mi ESE 4.6 mph - N/A   Partly Cloudy
5:55 AM 70.3 °F - 69.1 °F 96% 29.88 in 10.0 mi ESE 3.5 mph - N/A   Partly Cloudy
6:09 AM 69.8 °F - 69.8 °F 100% 29.89 in 10.0 mi ESE 4.6 mph - N/A   Mostly Cloudy
6:33 AM 71.6 °F - 69.8 °F 94% 29.89 in 10.0 mi ESE 4.6 mph - N/A   Scattered Clouds
6:34 AM 71.6 °F - 69.8 °F 94% 29.89 in 10.0 mi ESE 4.6 mph - N/A   Mostly Cloudy
6:36 AM 71.6 °F - 69.8 °F 94% 29.89 in 10.0 mi ESE 4.6 mph - N/A   Scattered Clouds
6:44 AM 71.6 °F - 69.8 °F 94% 29.89 in 10.0 mi ESE 5.8 mph - N/A   Mostly Cloudy
6:55 AM 71.1 °F - 70.2 °F 97% 29.89 in 10.0 mi ESE 5.8 mph - N/A   Mostly Cloudy
7:15 AM 71.6 °F - 69.8 °F 94% 29.89 in 10.0 mi ESE 4.6 mph - N/A   Overcast
7:27 AM 71.6 °F - 71.6 °F 100% 29.89 in 10.0 mi ESE 4.6 mph - N/A   Overcast
7:55 AM 72.3 °F - 71.4 °F 97% 29.89 in 10.0 mi ESE 4.6 mph - N/A   Overcast
8:15 AM 73.4 °F - 71.6 °F 94% 29.90 in 10.0 mi SE 5.8 mph - N/A   Overcast
8:39 AM 73.4 °F - 73.4 °F 100% 29.90 in 10.0 mi SE 5.8 mph - N/A   Overcast
8:55 AM 74.1 °F - 72.9 °F 96% 29.91 in 10.0 mi Variable 5.8 mph - N/A   Overcast
9:12 AM 75.2 °F - 73.4 °F 94% 29.91 in 10.0 mi SSE 6.9 mph - N/A   Overcast
9:51 AM 75.2 °F - 73.4 °F 94% 29.92 in 10.0 mi South 9.2 mph - N/A   Mostly Cloudy
9:55 AM 75.7 °F - 73.6 °F 93% 29.92 in 10.0 mi SSE 8.1 mph - N/A   Mostly Cloudy
9:58 AM 75.2 °F - 73.4 °F 94% 29.92 in 10.0 mi SSE 8.1 mph - N/A   Scattered Clouds
10:55 AM 77.9 °F - 73.8 °F 87% 29.91 in 10.0 mi SSE 6.9 mph - N/A   Partly Cloudy
11:20 AM 78.8 °F - 73.4 °F 83% 29.91 in 10.0 mi SSE 8.1 mph - N/A Rain Light Rain
11:31 AM 77.0 °F - 73.4 °F 89% 29.90 in 3.0 mi South 4.6 mph - N/A Rain Light Rain
11:43 AM 77.0 °F - 75.2 °F 94% 29.90 in 6.0 mi SSE 5.8 mph - N/A Rain Light Rain
11:46 AM 77.0 °F - 75.2 °F 94% 29.90 in 10.0 mi Variable 4.6 mph - N/A   Scattered Clouds
11:55 AM 77.4 °F - 75.2 °F 93% 29.91 in 10.0 mi SSE 4.6 mph - 0.03 in   Scattered Clouds
12:55 PM 81.9 °F 88.7 °F 75.6 °F 81% 29.89 in 10.0 mi South 8.1 mph 18.4 mph N/A   Mostly Cloudy
12:57 PM 82.4 °F 89.5 °F 75.2 °F 79% 29.89 in 10.0 mi South 8.1 mph 18.4 mph N/A   Mostly Cloudy
1:18 PM 80.6 °F 86.2 °F 75.2 °F 84% 29.89 in 10.0 mi South 8.1 mph - N/A   Mostly Cloudy
1:34 PM 80.6 °F 86.2 °F 75.2 °F 84% 29.88 in 10.0 mi SSE 8.1 mph - N/A Rain Light Rain
1:44 PM 80.6 °F 86.2 °F 75.2 °F 84% 29.88 in 10.0 mi SSE 8.1 mph - N/A   Scattered Clouds
1:55 PM 81.1 °F 87.6 °F 75.7 °F 84% 29.88 in 10.0 mi South 8.1 mph - 0.00 in   Partly Cloudy
2:19 PM 80.6 °F 86.2 °F 75.2 °F 84% 29.88 in 10.0 mi SSE 8.1 mph - N/A   Light Drizzle
2:21 PM 80.6 °F 86.2 °F 75.2 °F 84% 29.88 in 10.0 mi SSE 9.2 mph - N/A Rain Light Rain
2:22 PM 80.6 °F 86.2 °F 75.2 °F 84% 29.88 in 8.0 mi SSE 8.1 mph - N/A Rain Light Rain
2:25 PM 78.8 °F - 75.2 °F 89% 29.88 in 2.5 mi South 8.1 mph - N/A Rain Heavy Rain
2:27 PM 78.8 °F - 75.2 °F 89% 29.88 in 1.8 mi SSE 8.1 mph - N/A Rain Heavy Rain
2:36 PM 77.0 °F - 75.2 °F 94% 29.88 in 2.0 mi SSE 4.6 mph - N/A Rain Light Rain
2:40 PM 77.0 °F - 75.2 °F 94% 29.88 in 3.0 mi SSE 4.6 mph - N/A Rain Light Rain
2:48 PM 78.8 °F - 77.0 °F 94% 29.88 in 7.0 mi SSE 5.8 mph - N/A Rain Light Rain
2:50 PM 78.8 °F - 77.0 °F 94% 29.87 in 5.0 mi SE 4.6 mph - N/A Rain Light Rain
2:55 PM 78.3 °F - 76.6 °F 95% 29.87 in 4.0 mi SE 5.8 mph - 0.22 in Rain Light Rain
3:10 PM 78.8 °F - 77.0 °F 94% 29.87 in 10.0 mi SE 3.5 mph - N/A   Scattered Clouds
3:55 PM 79.3 °F - 76.3 °F 90% 29.86 in 10.0 mi South 10.4 mph - 0.00 in   Partly Cloudy
4:22 PM 80.6 °F 87.1 °F 77.0 °F 89% 29.86 in 10.0 mi Variable 6.9 mph - N/A   Light Drizzle
4:31 PM 80.6 °F 87.1 °F 77.0 °F 89% 29.86 in 10.0 mi South 6.9 mph - N/A   Partly Cloudy
4:55 PM 80.1 °F 85.8 °F 76.8 °F 90% 29.86 in 10.0 mi SSE 4.6 mph - 0.00 in   Clear
5:21 PM 80.6 °F 87.1 °F 77.0 °F 89% 29.87 in 10.0 mi Calm Calm - N/A   Mostly Cloudy
5:55 PM 80.2 °F 86.0 °F 76.5 °F 88% 29.88 in 10.0 mi South 5.8 mph - N/A   Mostly Cloudy
6:01 PM 80.6 °F 87.1 °F 77.0 °F 89% 29.88 in 10.0 mi Variable 4.6 mph - N/A   Mostly Cloudy
6:55 PM 77.7 °F - 75.2 °F 92% 29.90 in 10.0 mi SSE 4.6 mph - N/A   Partly Cloudy
7:55 PM 77.7 °F - 75.2 °F 92% 29.91 in 10.0 mi SSE 6.9 mph - N/A   Clear
8:55 PM 76.8 °F - 75.0 °F 94% 29.94 in 10.0 mi South 6.9 mph - N/A   Clear
9:18 PM 77.0 °F - 75.2 °F 94% 29.94 in 10.0 mi SSE 6.9 mph - N/A   Mostly Cloudy
9:24 PM 77.0 °F - 75.2 °F 94% 29.94 in 10.0 mi South 6.9 mph - N/A   Mostly Cloudy
9:55 PM - - - N/A% 29.94 in 10.0 mi South 6.9 mph - N/A   Mostly Cloudy
10:00 PM - - - N/A% 29.94 in 10.0 mi South 5.8 mph - N/A   Mostly Cloudy
10:55 PM - - - N/A% 29.95 in 10.0 mi SSE 5.8 mph - N/A   Partly Cloudy
11:05 PM - - - N/A% 29.95 in 10.0 mi South 5.8 mph - N/A   Mostly Cloudy
11:24 PM - - - N/A% 29.95 in 10.0 mi South 4.6 mph - N/A   Overcast
11:35 PM - - - N/A% 29.95 in 10.0 mi South 4.6 mph - N/A   Overcast
11:43 PM - - - N/A% 29.96 in 10.0 mi South 3.5 mph - N/A   Overcast
11:55 PM - - - N/A% 29.96 in 10.0 mi Calm Calm - N/A   Overcast